Regional Weather Roundup
Issued by NWS

Home | Current Version | Previous Version | Graphics & Text | Print | Product List | Glossary On
Versions: 1 2 3 4 5 6 7 8 9 10 11 12 13 14 15 16 17 18 19 20 21 22 23 24 25 26 27 28 29 30 31 32 33 34 35 36 37 38 39 40 41 42 43 44 45 46 47 48 49 50
000
ASUS43 KMKX 251021
RWRWI

WISCONSIN REGIONAL WEATHER ROUNDUP
NATIONAL WEATHER SERVICE MILWAUKEE/SULLIVAN WI
500 AM CDT SAT MAR 25 2017

NOTE: "FAIR" INDICATES FEW OR NO CLOUDS BELOW 12,000 FEET WITH NO
SIGNIFICANT WEATHER AND/OR OBSTRUCTIONS TO VISIBILITY.

WIZ001-002-006>008-014>016-023>028-251100-
NORTHWEST WISCONSIN

CITY           SKY/WX    TMP DP  RH WIND       PRES   REMARKS
SUPERIOR ARPT  CLOUDY    34  31  88 NE8       30.26S WCI  27
ASHLAND        CLOUDY    33  29  85 NE9       30.26S WCI  25
HAYWARD        CLOUDY    35  29  78 NE10      30.21F WCI  27
SIREN          CLOUDY    34  30  83 NE6       30.21S WCI  29
CUMBERLAND     CLOUDY    34  30  86 NE9       30.18S WCI  26
RICE LAKE      CLOUDY    35  31  85 CALM      30.20S
CHETEK         CLOUDY    35  31  86 NE5       30.19R WCI  31
LADYSMITH      CLOUDY    35  31  85 NE8       30.20S WCI  29
EAU CLAIRE     CLOUDY    37  32  82 NE13      30.16R WCI  29
MENOMONIE      CLOUDY    37  32  82 NE6       30.17R WCI  32
NEW RICHMOND   CLOUDY    35  31  84 NE8       30.17S WCI  28
OSCEOLA        CLOUDY    36  31  81 NE7       30.21R WCI  30
$$

WIZ003>005-009-010-017-018-251100-
NORTH CENTRAL WISCONSIN

CITY           SKY/WX    TMP DP  RH WIND       PRES   REMARKS
MANITOWISH WTR CLOUDY    31  31 100 NE6       30.21R WCI  25
ARBOR VITAE    CLOUDY    34  32  92 NE3       30.20R
WOODRUFF       CLOUDY    34  32  92 NE3       30.20R
RHINELANDER    CLOUDY    34  32  92 E10       30.19S WCI  26
EAGLE RIVER    CLOUDY    32  31  97 NE6       30.21R WCI  26
LAND O LAKES   CLOUDY    32  32  99 NE5       30.23R WCI  27
PHILLIPS       CLOUDY    33  31  92 E10       30.19R WCI  24
TOMAHAWK       CLOUDY    32  29  88 E5        30.19S WCI  28
MEDFORD        CLOUDY    32  29  90 E10       30.17R WCI  24
MERRILL        CLOUDY    33  31  92 E8        30.20R WCI  26
$$

WIZ029-030-035-036-043>047-251100-
CENTRAL WISCONSIN

CITY           SKY/WX    TMP DP  RH WIND       PRES   REMARKS
WAUSAU         CLOUDY    33  30  88 E12       30.17F WCI  24
MOSINEE        CLOUDY    32  32 100 NE13      30.18S WCI  22
MARSHFIELD     CLOUDY    33  30  88 E14       30.15S WCI  23
STEVENS POINT  CLOUDY    32  31  96 NE13      30.17S WCI  23
WAUPACA        CLOUDY    36  33  88 NE9       30.17F WCI  29
WAUTOMA        CLOUDY    34  33  96 NE12G20   30.14F WCI  25
WISC RAPIDS    CLOUDY    34  32  92 E14       30.17S WCI  25
CAMP DOUGLAS   CLOUDY    35  33  93 NE9       30.13S WCI  28
$$

WIZ011>013-019>022-031-037>040-048>050-251100-
NORTHEAST WISCONSIN

CITY           SKY/WX    TMP DP  RH WIND       PRES   REMARKS
ANTIGO         CLOUDY    32  30  91 E13       30.19S WCI  22
SHAWANO        CLOUDY    37  33  85 NE8       30.20R WCI  30
OCONTO         MOCLDY    34  32  91 NE9       30.20S WCI  27
STURGEON BAY   CLOUDY    35  33  92 NE12      30.21R WCI  27
GREEN BAY      CLOUDY    35  34  96 N18       30.18R WCI  24
MANITOWOC      CLOUDY    36  34  92 NE9G16    30.16R WCI  29
APPLETON       CLOUDY    34  34 100 NE14      30.15R WCI  24
CLINTONVILLE   CLOUDY    34  32  93 NE10      30.19S WCI  26
OSHKOSH        CLOUDY    35  33  92 NE14      30.14R FOG     WCI  26
$$

WIZ032>034-041-042-053>061-251100-
SOUTHWEST WISCONSIN

CITY           SKY/WX    TMP DP  RH WIND       PRES   REMARKS
LA CROSSE      CLOUDY    39  35  86 NE16G23   30.12S WCI  30
SPARTA         CLOUDY    35  34  94 NE9G18    30.14R WCI  28
VIROQUA        CLOUDY    35  35 100 NE20      30.07S WCI  24
BOSCOBEL       CLOUDY    38  35  89 E13G21    30.07S WCI  30
PRAIRIE DU CHI CLOUDY    37  36  96 NE10      30.05R WCI  29
PLATTEVILLE    CLOUDY    37  37 100 NE16      30.02S WCI  28
$$

WIZ056-057-062-063-064-067-068-251100-
SOUTH CENTRAL WISCONSIN

CITY           SKY/WX    TMP DP  RH WIND       PRES   REMARKS
REEDSBURG      CLOUDY    34  34 100 NE13      30.09S WCI  25
BARABOO/DELLS  CLOUDY    34  33  96 NE14G20   30.10R FOG     WCI  24
LONE ROCK      CLOUDY    37  34  89 E14       30.09R WCI  28
MINERAL POINT  CLOUDY    36  36 100 NE16G23   30.04S WCI  26
MADISON        CLOUDY    36  34  92 NE14G21   30.09R WCI  27
MIDDLETON      CLOUDY    37  36  93 NE12      30.09R WCI  30
WATERTOWN      CLOUDY    36  36 100 NE9       30.08S WCI  29
MONROE         CLOUDY    36  36 100 NE20      30.03F WCI  25
JANESVILLE     DRIZZLE   37  37 100 NE9       30.05F WCI  31
$$

WIZ051-052-058>065-066-070>072-251100-
SOUTHEAST WISCONSIN

CITY           SKY/WX    TMP DP  RH WIND       PRES   REMARKS
MILWAUKEE      LGT RAIN  38  35  89 N14G22    30.09R WCI  30
WAUKESHA       CLOUDY    34  34 100 NE9       30.10R WCI  26
MILWAUKEE/TIMM CLOUDY    36  34  93 NE12G18   30.11R WCI  27
RACINE         CLOUDY    37  35  92 N13       30.10R WCI  29
KENOSHA        CLOUDY    38  36  92 NE12      30.07S WCI  30
FOND DU LAC    MIX PCPN  36  32  85 NE15      30.13S FOG     WCI  27
SHEBOYGAN      CLOUDY    36  33  89 NE18      30.13R WCI  26
WEST BEND      DRIZZLE   36  36 100 NE10G17   30.11R WCI  28
JUNEAU         DRIZZLE   35  34  96 NE8       30.11R WCI  28
$$

LSZ147-162-251100-
LAKE SUPERIOR

STATION/POSITION TIME  TEMP    WIND        PRES    WAVE
                       AIR SEA DIR/SP/G            HT/PER
                 (UTC) (F)     (DEG/KT/KT) (MB)    (FT/S)
DEVILS ISLAND    1000   34      60/ 19/ 20 1026.4F
PORT WING        0940   34      70/  7/ 10 1025.1S
SAXON HARBOR     0940   33      50/  9/ 10 1024.7S
$$

LMZ867-665-643>646-251100-
LAKE MICHIGAN

STATION/POSITION TIME  TEMP    WIND        PRES    WAVE
                       AIR SEA DIR/SP/G            HT/PER
                 (UTC) (F)     (DEG/KT/KT) (MB)    (FT/S)
CHAMBERS ISLAND  0940   33      20/ 11/ 13 1023.0R
NORTHPORT PIER   0940   35      50/ 12/ 15 1023.7R
SISTER BAY       0905   35      30/  8/ 11   N/A
KEWAUNEE LAKESHO 0954   36      40/ 13/ 19 1021.3R
SHEBOYGAN LAKESH 1000   36      30/ 19/ 21 1020.8R
PORT WASHINGTON  0930   37      30/ 11/ 19 1020.3R
MILWAUKEE LAKESH 1000   37      20/ 14/ 17   N/A
KENOSHA   LAKESH 1000   37      10/ 16/ 19 1018.3
$$

TC  - TEMPERATURE IN CELSIUS
VSB - VISIBILITY IN STATUTE MILES
WCI - WIND CHILL INDEX
HX  - HEAT INDEX




USA.gov is the U.S. government's official web portal to all federal, state and local government web resources and services.